Phillips, WI

6:15 AM CDT on April 27, 2017 (GMT -0500)
Price County

Weather History for KPBH - December, 2013

Change the Weather History Date:

Sunday, December 29, 2013

  Actual Average Record
Temperature  
Mean Temperature -1 °F -  
Max Temperature 20 °F 21 °F 42 °F (1999)
Min Temperature -24 °F 6 °F -24 °F (2013)
Degree Days  
Heating Degree Days 66    
Moisture  
Dew Point -5 °F    
Average Humidity 76    
Maximum Humidity 90    
Minimum Humidity 66    
Precipitation  
Precipitation 0.00 in - - ()
Sea Level Pressure  
Sea Level Pressure 30.03 in    
Wind  
Wind Speed 11 mph (NNW)    
Max Wind Speed 20 mph    
Max Gust Speed 26 mph    
Visibility 9 miles    
Events Snow    
Averages and records for this station are not official NWS values.
T = Trace of Precipitation, MM = Missing Value Source: NWS Daily Summary

Daily Weather History Graph

Daily Weather History Graph

Search for Another Location

Airport or City:

Trip Planner

Search our weather history database for the weather conditions in past years. The results will help you decide how hot, cold, wet, or windy it might be!

Date:

Astronomy

Dec. 29, 2013 Rise Set
Actual Time 7:42 AM CST 4:25 PM CST
Civil Twilight 7:07 AM CST 4:59 PM CST
Nautical Twilight 6:30 AM CST 5:37 PM CST
Astronomical Twilight 5:54 AM CST 6:13 PM CST
Moon 4:21 AM CST (12/29) 2:07 PM CST (12/29)
Length of Visible Light 9h 51m
Length of Day
8h 43m
Waning Crescent, 11% of the Moon is Illuminated
Dec 29
Waning Crescent
Jan 1
New
Jan 7
First Quarter
Jan 15
Full
Jan 23
Last Quarter

Hourly Weather History & Observations

Time (CST) Temp. Windchill Dew Point Humidity Pressure Visibility Wind Dir Wind Speed Gust Speed Precip Events Conditions
12:15 AM 20.5 °F 5.9 °F 18.0 °F 90% 29.81 in 7.0 mi North 17.3 mph 23.0 mph N/A   Overcast
12:35 AM 20.1 °F 6.4 °F 16.9 °F 87% 29.82 in 10.0 mi North 15.0 mph 23.0 mph N/A   Overcast
12:55 AM 19.4 °F 3.6 °F 16.0 °F 87% 29.84 in 10.0 mi North 19.6 mph 24.2 mph N/A   Overcast
1:15 AM 18.5 °F 5.5 °F 15.4 °F 88% 29.86 in 7.0 mi North 12.7 mph 21.9 mph N/A   Overcast
1:35 AM 17.2 °F 4.5 °F 13.8 °F 86% 29.87 in 5.0 mi North 11.5 mph 21.9 mph N/A Snow Light Snow
1:55 AM 16.3 °F 2.1 °F 12.9 °F 86% 29.89 in 5.0 mi North 13.8 mph 20.7 mph N/A Snow Light Snow
2:15 AM 15.6 °F 1.2 °F 11.5 °F 84% 29.90 in 5.0 mi North 13.8 mph 23.0 mph N/A Snow Light Snow
2:35 AM 15.3 °F 0.8 °F 10.8 °F 82% 29.91 in 10.0 mi North 13.8 mph 23.0 mph N/A Snow Light Snow
2:55 AM 14.9 °F -1.3 °F 10.2 °F 82% 29.91 in 10.0 mi North 17.3 mph 25.3 mph N/A   Overcast
3:15 AM 14.2 °F -0.6 °F 9.3 °F 81% 29.91 in 10.0 mi North 13.8 mph 24.2 mph N/A   Overcast
3:35 AM 14.0 °F 0.5 °F 9.1 °F 81% 29.92 in 7.0 mi North 11.5 mph 26.5 mph N/A Snow Light Snow
3:55 AM 13.6 °F 0.0 °F 7.7 °F 77% 29.93 in 10.0 mi North 11.5 mph 24.2 mph N/A   Overcast
4:15 AM 13.1 °F -3.1 °F 7.3 °F 78% 29.93 in 10.0 mi North 16.1 mph 21.9 mph N/A Snow Light Snow
4:35 AM 12.6 °F -2.7 °F 7.2 °F 79% 29.95 in 7.0 mi North 13.8 mph 20.7 mph N/A Snow Light Snow
4:55 AM 11.8 °F -4.8 °F 5.9 °F 77% 29.96 in 7.0 mi North 16.1 mph 25.3 mph N/A Snow Light Snow
5:15 AM 11.3 °F -4.3 °F 6.3 °F 80% 29.97 in 4.0 mi North 13.8 mph 19.6 mph N/A Snow Light Snow
5:35 AM 10.8 °F -3.6 °F 5.7 °F 80% 29.98 in 5.0 mi North 11.5 mph 18.4 mph N/A Snow Light Snow
5:55 AM 10.2 °F -4.3 °F 5.2 °F 80% 29.98 in 7.0 mi North 11.5 mph 18.4 mph N/A Snow Light Snow
6:15 AM 9.7 °F -5.7 °F 4.3 °F 79% 29.99 in 7.0 mi North 12.7 mph 25.3 mph N/A Snow Light Snow
6:35 AM 9.5 °F -5.2 °F 3.9 °F 78% 30.00 in 10.0 mi North 11.5 mph 20.7 mph N/A   Overcast
6:55 AM 7.7 °F -5.8 °F 3.4 °F 83% 30.01 in 4.0 mi NNW 9.2 mph - N/A Snow Light Snow
7:15 AM 7.2 °F -8.9 °F 2.3 °F 80% 30.02 in 7.0 mi NNW 12.7 mph 21.9 mph N/A   Overcast
7:35 AM 6.4 °F -7.3 °F 1.6 °F 80% 30.03 in 7.0 mi NNW 9.2 mph 17.3 mph N/A   Overcast
7:55 AM 5.5 °F -10.2 °F 0.3 °F 79% 30.03 in 5.0 mi NNW 11.5 mph 17.3 mph N/A   Haze
8:15 AM 4.6 °F -10.4 °F -0.4 °F 80% 30.04 in 5.0 mi NNW 10.4 mph 21.9 mph N/A   Haze
8:35 AM 4.1 °F -11.1 °F -1.3 °F 78% 30.04 in 4.0 mi NW 10.4 mph 21.9 mph N/A   Haze
8:55 AM 3.6 °F -9.8 °F -2.6 °F 76% 30.05 in 4.0 mi NNW 8.1 mph 23.0 mph N/A   Haze
9:15 AM 3.2 °F -12.2 °F -3.1 °F 75% 30.05 in 5.0 mi NNW 10.4 mph 18.4 mph N/A   Haze
9:35 AM 2.8 °F -11.7 °F -4.0 °F 73% 30.05 in 10.0 mi NNW 9.2 mph 17.3 mph N/A   Scattered Clouds
9:55 AM 3.0 °F -12.5 °F -4.2 °F 72% 30.06 in 10.0 mi NNW 10.4 mph 16.1 mph N/A   Clear
10:15 AM 3.0 °F -13.3 °F -4.4 °F 71% 30.06 in 10.0 mi NNW 11.5 mph 18.4 mph N/A   Scattered Clouds
10:35 AM 3.0 °F -14.8 °F -4.9 °F 70% 30.06 in 10.0 mi NNW 13.8 mph 18.4 mph N/A   Scattered Clouds
10:55 AM 2.8 °F -13.5 °F -5.3 °F 69% 30.05 in 10.0 mi NNW 11.5 mph - N/A   Scattered Clouds
11:15 AM 2.8 °F -15.0 °F -5.6 °F 68% 30.05 in 10.0 mi NW 13.8 mph 19.6 mph N/A   Clear
11:35 AM 3.0 °F -13.3 °F -5.8 °F 67% 30.04 in 10.0 mi NNW 11.5 mph 17.3 mph N/A   Scattered Clouds
11:55 AM 3.6 °F -12.6 °F -5.3 °F 67% 30.05 in 10.0 mi North 11.5 mph - N/A   Mostly Cloudy
12:15 PM 3.2 °F -11.3 °F -5.4 °F 67% 30.04 in 10.0 mi NNW 9.2 mph 17.3 mph N/A   Overcast
12:35 PM 2.1 °F -15.2 °F -6.2 °F 68% 30.04 in 10.0 mi NNW 12.7 mph 18.4 mph N/A   Overcast
12:55 PM 2.3 °F -12.4 °F -6.0 °F 68% 30.04 in 10.0 mi NNW 9.2 mph 17.3 mph N/A   Overcast
1:15 PM 1.6 °F -14.2 °F -6.7 °F 68% 30.05 in 10.0 mi NNW 10.4 mph - N/A   Overcast
1:35 PM 1.2 °F -12.7 °F -7.6 °F 67% 30.04 in 10.0 mi NW 8.1 mph 17.3 mph N/A   Overcast
1:55 PM 1.0 °F -14.0 °F -7.6 °F 67% 30.05 in 10.0 mi NNW 9.2 mph - N/A   Overcast
2:15 PM 1.0 °F -12.9 °F -8.0 °F 66% 30.06 in 10.0 mi NNW 8.1 mph 17.3 mph N/A   Overcast
2:35 PM 1.2 °F -15.6 °F -7.8 °F 66% 30.06 in 10.0 mi NNW 11.5 mph - N/A   Mostly Cloudy
2:55 PM 0.9 °F -13.1 °F -7.8 °F 67% 30.06 in 10.0 mi NW 8.1 mph - N/A   Mostly Cloudy
3:15 PM -0.4 °F -14.7 °F -8.9 °F 67% 30.07 in 10.0 mi NW 8.1 mph - N/A   Mostly Cloudy
3:35 PM -1.1 °F -15.5 °F -9.4 °F 68% 30.07 in 10.0 mi NW 8.1 mph - N/A   Scattered Clouds
3:55 PM -2.2 °F -15.6 °F -10.3 °F 68% 30.07 in 10.0 mi NW 6.9 mph - N/A   Clear
4:15 PM -3.1 °F -16.7 °F -10.3 °F 71% 30.08 in 10.0 mi NNW 6.9 mph - N/A   Clear
4:35 PM -4.0 °F -16.3 °F -10.8 °F 72% 30.08 in 10.0 mi NW 5.8 mph - N/A   Clear
4:55 PM -5.1 °F -15.8 °F -11.2 °F 75% 30.09 in 10.0 mi NW 4.6 mph - N/A   Clear
5:15 PM -6.0 °F -14.7 °F -11.6 °F 77% 30.09 in 10.0 mi NW 3.5 mph - N/A   Clear
5:35 PM -6.7 °F -15.5 °F -12.3 °F 77% 30.10 in 10.0 mi NW 3.5 mph - N/A   Clear
5:55 PM -7.4 °F -18.6 °F -13.0 °F 77% 30.10 in 10.0 mi NW 4.6 mph - N/A   Clear
6:15 PM -7.6 °F -18.8 °F -13.4 °F 76% 30.11 in 10.0 mi NW 4.6 mph - N/A   Clear
6:35 PM -8.5 °F -19.8 °F -13.7 °F 78% 30.11 in 10.0 mi NW 4.6 mph - N/A   Clear
6:55 PM -9.4 °F - -14.8 °F 77% 30.11 in 10.0 mi Calm Calm - N/A   Clear
7:15 PM -9.8 °F -21.3 °F -14.8 °F 78% 30.11 in 10.0 mi NW 4.6 mph - N/A   Clear
7:35 PM -10.8 °F - -15.7 °F 79% 30.11 in 10.0 mi Calm Calm - N/A   Clear
7:55 PM -11.7 °F -21.3 °F -16.2 °F 80% 30.11 in 10.0 mi WNW 3.5 mph - N/A   Clear
8:15 PM -12.1 °F - -16.8 °F 80% 30.11 in 10.0 mi Calm Calm - N/A   Clear
8:35 PM -12.3 °F - -17.0 °F 80% 30.12 in 10.0 mi Calm Calm - N/A   Clear
8:55 PM -13.0 °F - -17.9 °F 79% 30.12 in 10.0 mi Calm Calm - N/A   Clear
9:15 PM -13.2 °F - -18.4 °F 77% 30.12 in 10.0 mi Calm Calm - N/A   Clear
9:35 PM -13.7 °F - -18.6 °F 79% 30.12 in 10.0 mi Calm Calm - N/A   Clear
9:55 PM -15.9 °F - -20.7 °F 79% 30.13 in 10.0 mi Calm Calm - N/A   Clear
10:15 PM -18.2 °F - -22.2 °F 82% 30.13 in 10.0 mi Calm Calm - N/A   Clear
10:35 PM -19.5 °F - -23.6 °F 81% 30.13 in 7.0 mi Calm Calm - N/A   Clear
10:55 PM -20.9 °F - -25.6 °F 79% 30.13 in 10.0 mi Calm Calm - N/A   Clear
11:15 PM -22.4 °F - -27.0 °F 79% 30.14 in 10.0 mi Calm Calm - N/A   Clear
11:35 PM -22.4 °F - -27.2 °F 78% 30.14 in 10.0 mi Calm Calm - N/A   Clear
11:55 PM -24.0 °F - -28.7 °F 79% 30.14 in 10.0 mi Calm Calm - N/A   Clear